Fryeburg, ME

12:44 PM EST on January 19, 2018 (GMT -0500)
Eastern Slopes Regional

Weather History for KIZG - March, 2013

Change the Weather History Date:

Wednesday, March 20, 2013

  Actual Average Record
Temperature  
Mean Temperature 24 °F -  
Max Temperature 36 °F 38 °F 82 °F (2012)
Min Temperature 12 °F 19 °F 0 °F (2015)
Degree Days  
Heating Degree Days 41    
Moisture  
Dew Point 19 °F    
Average Humidity 75    
Maximum Humidity 96    
Minimum Humidity 43    
Precipitation  
Precipitation 0.03 in - - ()
Sea Level Pressure  
Sea Level Pressure 29.67 in    
Wind  
Wind Speed 6 mph (WNW)    
Max Wind Speed 15 mph    
Max Gust Speed 23 mph    
Visibility 7 miles    
Events Rain , Snow    
Averages and records for this station are not official NWS values.
T = Trace of Precipitation, MM = Missing Value Source: NWS Daily Summary

Daily Weather History Graph

Daily Weather History Graph

Search for Another Location

Airport or City:

Trip Planner

Search our weather history database for the weather conditions in past years. The results will help you decide how hot, cold, wet, or windy it might be!

Date:

Astronomy

Mar. 20, 2013 Rise Set
Actual Time 6:46 AM EDT 6:56 PM EDT
Civil Twilight 6:17 AM EDT 7:25 PM EDT
Nautical Twilight 5:44 AM EDT 7:59 PM EDT
Astronomical Twilight 5:09 AM EDT 8:33 PM EDT
Moon 12:17 PM EDT (3/20) 2:35 AM EDT (3/20)
Length of Visible Light 13h 07m
Length of Day
12h 09m
First Quarter, 59% of the Moon is Illuminated
Mar 20
First Quarter
Mar 27
Full
Apr 3
Last Quarter
Apr 10
New
Apr 18
First Quarter

Hourly Weather History & Observations

Time (EDT) Temp. Windchill Dew Point Humidity Pressure Visibility Wind Dir Wind Speed Gust Speed Precip Events Conditions
12:06 AM 23.0 °F 13.9 °F 19.4 °F 86% 29.71 in 0.8 mi NNW 8.1 mph - 0.01 in Snow Light Snow
12:24 AM 23.0 °F 13.9 °F 19.4 °F 86% 29.70 in 1.0 mi NNW 8.1 mph - 0.02 in Snow Light Snow
12:33 AM 23.0 °F 13.9 °F 19.4 °F 86% 29.70 in 1.2 mi North 8.1 mph - 0.02 in Snow Light Snow
12:41 AM 23.0 °F 14.7 °F 19.4 °F 86% 29.70 in 1.5 mi NNW 6.9 mph - 0.02 in Snow Light Snow
12:51 AM 23.0 °F 15.8 °F 19.4 °F 86% 29.70 in 1.8 mi NNW 5.8 mph - 0.03 in Snow Light Snow
12:54 AM 23.0 °F 14.7 °F 19.9 °F 88% 29.72 in 1.8 mi NNW 6.9 mph - 0.03 in Snow Light Snow
1:08 AM 23.0 °F 17.0 °F 19.4 °F 86% 29.70 in 2.5 mi NNW 4.6 mph - 0.00 in Snow Light Snow
1:23 AM 23.0 °F 17.0 °F 19.4 °F 86% 29.69 in 3.0 mi NNW 4.6 mph - 0.00 in Snow Light Snow
1:54 AM 23.0 °F - 19.9 °F 88% 29.72 in 2.5 mi Calm Calm - 0.00 in Snow Light Snow
2:09 AM 23.0 °F - 19.4 °F 86% 29.68 in 2.5 mi Calm Calm - 0.00 in Snow Light Snow
2:17 AM 23.0 °F - 19.4 °F 86% 29.67 in 3.0 mi Calm Calm - 0.00 in Snow Light Snow
2:54 AM 21.9 °F - 19.9 °F 92% 29.69 in 10.0 mi Calm Calm - 0.00 in   Overcast
3:54 AM 19.9 °F - 18.0 °F 92% 29.66 in 10.0 mi Calm Calm - 0.00 in   Overcast
4:54 AM 17.1 °F - 16.0 °F 96% 29.66 in 10.0 mi Calm Calm - N/A   Mostly Cloudy
5:54 AM 14.0 °F 8.2 °F 12.0 °F 92% 29.66 in 10.0 mi SSW 3.5 mph - N/A   Overcast
6:54 AM 12.9 °F - 10.9 °F 92% 29.65 in 10.0 mi Calm Calm - 0.00 in   Overcast
7:54 AM 19.0 °F - 16.0 °F 88% 29.65 in 10.0 mi Calm Calm - N/A   Overcast
8:54 AM 27.0 °F - 21.9 °F 81% 29.65 in 10.0 mi Calm Calm - N/A   Overcast
9:54 AM 30.9 °F 23.5 °F 19.9 °F 64% 29.63 in 10.0 mi WSW 8.1 mph - 0.00 in   Partly Cloudy
10:54 AM 33.1 °F 24.4 °F 16.0 °F 50% 29.62 in 10.0 mi WNW 11.5 mph 21.9 mph 0.00 in   Overcast
11:54 AM 33.1 °F 26.1 °F 16.0 °F 50% 29.62 in 10.0 mi WNW 8.1 mph 23.0 mph 0.00 in   Scattered Clouds
12:54 PM 33.1 °F 24.9 °F 16.0 °F 50% 29.62 in 10.0 mi West 10.4 mph 20.7 mph N/A   Overcast
1:54 PM 33.1 °F 24.9 °F 14.0 °F 46% 29.62 in 10.0 mi NW 10.4 mph 18.4 mph N/A   Mostly Cloudy
2:54 PM 33.1 °F 26.1 °F 15.1 °F 48% 29.62 in 10.0 mi West 8.1 mph 19.6 mph 0.00 in Rain Light Rain
3:54 PM 36.0 °F 26.7 °F 15.1 °F 43% 29.62 in 10.0 mi West 15.0 mph 23.0 mph 0.00 in Rain Light Rain
4:54 PM 34.0 °F 28.0 °F 18.0 °F 52% 29.64 in 10.0 mi WSW 6.9 mph 19.6 mph 0.00 in   Scattered Clouds
5:54 PM 33.1 °F 24.9 °F 21.0 °F 61% 29.65 in 10.0 mi SW 10.4 mph - 0.00 in Rain Light Rain
6:54 PM 30.0 °F 25.2 °F 25.0 °F 82% 29.67 in 9.0 mi WSW 4.6 mph - 0.00 in   Overcast
7:35 PM 30.2 °F 24.3 °F 23.0 °F 75% 29.66 in 8.0 mi Variable 5.8 mph - 0.00 in Snow Light Snow
7:54 PM 32.0 °F 27.5 °F 23.0 °F 69% 29.69 in 10.0 mi West 4.6 mph - 0.00 in   Overcast
8:10 PM 30.2 °F 25.4 °F 24.8 °F 80% 29.67 in 2.5 mi Variable 4.6 mph - 0.00 in Snow Light Snow
8:18 PM 30.2 °F 25.4 °F 24.8 °F 80% 29.68 in 8.0 mi Variable 4.6 mph - 0.00 in Snow Light Snow
8:26 PM 30.2 °F 26.7 °F 24.8 °F 80% 29.67 in 10.0 mi Variable 3.5 mph - 0.00 in   Overcast
8:54 PM 30.0 °F 26.5 °F 21.9 °F 72% 29.70 in 10.0 mi WSW 3.5 mph - 0.00 in   Overcast
9:54 PM 28.9 °F 25.2 °F 19.0 °F 67% 29.71 in 10.0 mi SW 3.5 mph - 0.00 in   Partly Cloudy
10:54 PM 28.9 °F 23.9 °F 17.1 °F 61% 29.71 in 10.0 mi SW 4.6 mph - N/A   Clear
11:54 PM 28.0 °F 21.7 °F 17.1 °F 63% 29.72 in 10.0 mi Variable 5.8 mph - N/A   Clear